Location: Adrasan
(36.3319°N, 30.4314°E)
Time: 01:33:12
(UTC+00:00)

Meteor 1-10 Rocket - Visible Passes

Search period start: 21 May 2024 00:00
Search period end: 31 May 2024 00:00
Orbit: 835 x 910 km, 81.3° (Epoch: 20 May)

Date Brightness Start Highest point End Pass type
(mag) Time Alt. Az. Time Alt. Az. Time Alt. Az.
21 May 5.6 18:25:29 18° ESE 18:26:48 20° E 18:30:48 10° NE visible
21 May 5.0 20:07:54 35° WSW 20:09:46 46° WNW 20:15:13 10° N visible
22 May 5.6 18:19:23 18° ESE 18:21:14 21° E 18:25:21 10° NE visible
22 May 5.1 20:01:48 29° SW 20:04:13 44° WNW 20:09:39 10° N visible
23 May 5.5 18:13:14 17° ESE 18:15:40 22° E 18:19:53 10° NE visible
23 May 5.2 19:55:39 24° SW 19:58:42 42° WNW 20:04:03 10° N visible
24 May 5.4 18:07:00 15° SE 18:10:06 23° E 18:14:25 10° NE visible
24 May 5.3 19:49:24 18° SW 19:53:10 40° WNW 19:58:28 10° N visible
25 May 5.4 18:00:41 12° SE 18:04:32 24° E 18:08:57 10° NE visible
25 May 5.4 19:43:05 14° SW 19:47:38 38° WNW 19:52:53 10° N visible
26 May 5.3 17:54:25 10° SE 17:58:58 25° E 18:03:28 10° NE visible
26 May 5.6 19:36:51 10° SW 19:42:06 36° WNW 19:47:17 10° N visible
27 May 5.3 17:48:45 10° SE 17:53:24 26° E 17:57:59 10° NE visible
27 May 5.7 19:31:23 10° SW 19:36:34 35° WNW 19:41:41 10° N visible
28 May 5.2 17:43:07 10° SE 17:47:50 27° E 17:52:30 10° NNE visible
28 May 5.8 19:25:56 10° SW 19:31:02 33° WNW 19:36:05 10° NNW visible
29 May 5.1 17:37:28 10° SSE 17:42:16 29° E 17:47:00 10° NNE visible
29 May 5.9 19:20:28 10° SW 19:25:30 32° WNW 19:30:28 10° NNW visible
30 May 5.1 17:31:50 10° SSE 17:36:42 30° E 17:41:30 10° NNE visible
30 May 6.0 19:15:01 10° SW 19:19:58 30° WNW 19:24:52 10° NNW visible
